time_stamp(utc),avg(mph),gust(mph),direction(deg),12m_air_temp(f),sonic_u(cm/s),sonic_v(cm/s),sonic_w(cm/s),pressure,2m_air_temp(f),pyranometer(W/m^2)
"2017-01-18 00:00:21+00",8.9,9.9,,43.2,306,-222,3,1015.12,42.9,0
"2017-01-18 00:05:21+00",5.9,6.9,,43.3,181,-177,15,1015.36,43,0
"2017-01-18 00:10:21+00",7.1,9.1,,43.2,235,-200,-4,1015.09,43,0
"2017-01-18 00:15:21+00",4.7,5.7,,43.1,119,-147,2,1015.38,42.9,0
"2017-01-18 00:20:21+00",5.3,6.3,,43.2,80,-204,-7,1015.24,42.9,0
"2017-01-18 00:25:21+00",6.3,7.3,,43.4,113,-238,6,1015.28,43,0
"2017-01-18 00:30:21+00",7.0,9.0,,43.3,66,-288,-9,1015.2,43.1,0
"2017-01-18 00:35:21+00",5.8,6.8,,43,21,-241,-8,1015.38,42.9,0
"2017-01-18 00:40:21+00",6.1,8.1,,42.9,20,-248,-2,1015.3,42.7,0
"2017-01-18 00:45:21+00",6.5,8.5,,42.9,33,-268,-2,1015.12,42.7,0
"2017-01-18 00:50:21+00",6.7,7.7,,43.2,36,-272,-5,1015.06,42.8,0
"2017-01-18 00:55:21+00",3.9,4.9,,43.1,-15,-150,3,1015.12,42.8,0
"2017-01-18 01:00:21+00",5.6,6.6,,43.3,-44,-225,-10,1015.09,42.9,0
"2017-01-18 01:05:21+00",5.1,6.1,,43.8,-36,-210,-5,1015.02,43.3,0
"2017-01-18 01:10:21+00",5.3,6.3,,43.6,-25,-215,-9,1014.86,43.4,0
"2017-01-18 01:15:21+00",4.6,5.6,,43.5,-18,-190,-9,1014.76,43.2,0
"2017-01-18 01:20:21+00",4.2,5.2,,43.7,-44,-159,-4,1014.76,43.2,0
"2017-01-18 01:25:21+00",6.6,8.6,,44.2,-119,-255,-3,1014.75,43.5,0
"2017-01-18 01:30:21+00",6.8,7.8,,44.5,-120,-265,4,1014.68,43.9,0
"2017-01-18 01:35:21+00",8.0,9.0,,44.6,-170,-307,5,1014.68,44.1,0
"2017-01-18 01:40:21+00",8.7,10.7,,44.7,-119,-352,-1,1014.44,44.3,0
"2017-01-18 01:45:21+00",8.2,10.2,,44.6,-122,-326,-8,1014.47,44.3,0
"2017-01-18 01:50:21+00",9.4,11.4,,44.8,-160,-362,-2,1014.64,44.4,0
"2017-01-18 01:55:21+00",8.3,10.3,,45,-201,-305,1,1014.87,44.5,0
"2017-01-18 02:00:21+00",8.8,10.8,,45.1,-232,-323,14,1014.81,44.6,0
"2017-01-18 02:05:21+00",9.7,10.7,,45.1,-257,-350,4,1014.76,44.7,0
"2017-01-18 02:10:21+00",9.5,11.5,,45,-334,-355,51,1014.57,44.6,0
"2017-01-18 02:15:21+00",8.3,9.3,,44.9,-284,-304,38,1014.56,44.5,0
"2017-01-18 02:20:21+00",7.7,8.7,,44.9,-169,-289,-3,1014.47,44.5,0
"2017-01-18 02:25:21+00",6.3,7.3,,44.7,-105,-243,-2,1014.21,44.3,0
"2017-01-18 02:30:21+00",4.8,5.8,,44.9,-80,-184,1,1014.04,44.4,0
"2017-01-18 02:35:21+00",3.5,4.5,,45.1,-76,-126,4,1013.86,44.5,0
"2017-01-18 02:40:21+00",4.8,5.8,,45.1,-19,-196,-2,1013.53,44.7,0
"2017-01-18 02:45:21+00",4.7,4.7,,45.1,-20,-192,-2,1013.37,44.7,0
"2017-01-18 02:50:21+00",6.4,8.4,,45.3,-38,-260,-1,1013.32,44.8,0
"2017-01-18 02:55:21+00",6.9,7.9,,45.2,-64,-273,0,1013.38,44.9,0
"2017-01-18 03:00:21+00",7.3,9.3,,44.6,-78,-295,-2,1013.31,44.4,0
"2017-01-18 03:05:21+00",7.2,8.2,,44.6,-94,-291,-1,1013.17,44.2,0
"2017-01-18 03:10:21+00",9.5,11.5,,45,-187,-363,-11,1013.32,44.5,0
"2017-01-18 03:15:21+00",10.1,12.1,,45,-165,-396,-4,1013.14,44.6,0
"2017-01-18 03:20:21+00",9.0,11.0,,44.8,-158,-352,0,1013.24,44.5,0
"2017-01-18 03:25:21+00",6.5,8.5,,44.8,-77,-260,-5,1013.05,44.5,0
"2017-01-18 03:30:21+00",7.1,9.1,,44.7,-133,-272,9,1013.14,44.4,0
"2017-01-18 03:35:21+00",7.3,9.3,,44.6,-88,-296,-3,1013.07,44.3,0
"2017-01-18 03:40:21+00",7.1,8.1,,44.6,-104,-276,-8,1013.07,44.3,0
"2017-01-18 03:45:21+00",7.5,8.5,,44.5,-129,-286,-2,1012.94,44.2,0
"2017-01-18 03:50:21+00",6.1,7.1,,44.5,-111,-234,4,1012.76,44.1,0
"2017-01-18 03:55:21+00",4.4,5.4,,44.6,-99,-156,-3,1012.81,44.1,0
"2017-01-18 04:00:21+00",5.7,6.7,,44.6,-115,-211,2,1012.68,44.2,0
"2017-01-18 04:05:21+00",6.3,7.3,,44.6,-178,-211,9,1012.95,44.1,0
"2017-01-18 04:10:21+00",5.8,6.8,,44.5,-185,-160,3,1013.05,44,0
"2017-01-18 04:15:21+00",2.2,3.2,,44.4,-84,-46,9,1012.77,44,0
"2017-01-18 04:20:21+00",1.2,2.2,,44.3,-41,-25,2,1012.59,43.9,0
"2017-01-18 04:25:21+00",2.9,3.9,,44.3,-119,-25,2,1012.62,43.9,0
"2017-01-18 04:30:21+00",3.3,4.3,,44.3,-129,-62,0,1012.52,43.9,0
"2017-01-18 04:35:21+00",3.0,4.0,,44.2,-108,-72,5,1012.43,43.8,0
"2017-01-18 04:40:21+00",3.3,4.3,,44.2,-90,-106,9,1012.26,43.7,0
"2017-01-18 04:45:21+00",4.0,5.0,,44.1,-25,-161,-3,1011.93,43.8,0
"2017-01-18 04:50:21+00",3.2,5.2,,44.2,-25,-121,6,1011.78,43.8,0
"2017-01-18 04:55:21+00",3.2,4.2,,44.2,-98,-93,6,1011.9,43.9,0
"2017-01-18 05:00:21+00",2.6,3.6,,44.1,-94,-54,1,1011.94,43.8,0
"2017-01-18 05:05:21+00",2.3,3.3,,44,-70,-60,2,1011.78,43.7,0
"2017-01-18 05:10:21+00",2.5,2.5,,43.9,-58,-83,4,1011.65,43.6,0
"2017-01-18 05:15:21+00",3.0,4.0,,43.9,-117,-60,0,1011.64,43.6,0
"2017-01-18 05:20:21+00",3.9,4.9,,44,-122,-99,2,1011.69,43.6,0
"2017-01-18 05:25:21+00",3.0,4.0,,44,-88,-91,4,1011.53,43.6,0
"2017-01-18 05:30:21+00",3.1,4.1,,43.9,-106,-73,-1,1011.55,43.6,0
"2017-01-18 05:35:21+00",3.3,4.3,,43.9,-97,-97,1,1011.42,43.6,0
"2017-01-18 05:40:21+00",2.9,2.9,,43.9,-56,-102,-1,1011.18,43.6,0
"2017-01-18 05:45:21+00",2.6,3.6,,43.9,-27,-94,3,1011.03,43.6,0
"2017-01-18 05:50:21+00",3.4,4.4,,44,16,-133,1,1010.84,43.6,0
"2017-01-18 05:55:21+00",2.4,2.4,,43.9,90,-34,2,1010.82,43.5,0
"2017-01-18 06:00:21+00",6.9,7.9,,43.8,-309,15,23,1011.62,43.3,0
"2017-01-18 06:05:21+00",6.0,7.0,,43.7,-265,16,17,1011.43,43.1,0
"2017-01-18 06:10:21+00",5.3,5.3,,43.6,-224,65,13,1011.4,42.7,0
"2017-01-18 06:15:21+00",5.6,6.6,,43.5,-240,50,8,1011.47,42.7,0
"2017-01-18 06:20:21+00",4.4,4.4,,43.3,-180,51,7,1011.19,42.8,0
"2017-01-18 06:25:21+00",5.1,5.1,,43.2,-184,118,11,1011.19,42.7,0
"2017-01-18 06:30:21+00",5.4,6.4,,43.5,-203,117,9,1011.15,42.5,0
"2017-01-18 06:35:21+00",4.6,4.6,,43.8,-177,89,11,1011.24,42.6,0
"2017-01-18 06:40:21+00",5.2,5.2,,43.7,-190,119,13,1011.43,42.6,0
"2017-01-18 06:45:21+00",4.9,5.9,,43.7,-166,124,11,1011.32,42.8,0
"2017-01-18 06:50:21+00",5.2,5.2,,43.6,-157,152,14,1011.3,43,0
"2017-01-18 06:55:21+00",5.2,5.2,,43.5,-154,163,11,1011.3,43.1,0
"2017-01-18 07:00:21+00",4.5,4.5,,43.5,-184,64,7,1011.36,43.1,0
"2017-01-18 07:05:21+00",4.1,5.1,,43.4,-139,107,10,1011.35,43,0
"2017-01-18 07:10:21+00",3.6,3.6,,43.5,-86,120,8,1011.24,42.8,0
"2017-01-18 07:15:21+00",3.8,3.8,,43.7,-28,151,6,1011.05,42.9,0
"2017-01-18 07:20:21+00",2.6,2.6,,43.8,-1,96,6,1010.99,43.1,0
"2017-01-18 07:25:21+00",0.0,0.0,,43.9,18,-11,3,1010.85,43.2,0
"2017-01-18 07:30:21+00",1.5,1.5,,43.8,39,-36,0,1010.78,43.1,0
"2017-01-18 07:35:21+00",1.5,1.5,,43.7,33,-49,1,1010.77,43.1,0
"2017-01-18 07:40:21+00",3.2,3.2,,43.7,42,-122,-1,1010.69,43,0
"2017-01-18 07:45:21+00",2.0,2.0,,43.8,12,-77,-2,1010.63,43,0
"2017-01-18 07:50:21+00",1.6,1.6,,43.8,-16,-59,4,1010.57,43.1,0
"2017-01-18 07:55:21+00",0.0,0.0,,43.8,-28,-5,3,1010.59,43.1,0
"2017-01-18 08:00:21+00",1.4,1.4,,43.9,-50,-8,0,1010.56,43.1,0
"2017-01-18 08:05:21+00",1.6,2.6,,44,-56,-40,7,1010.61,43,0
"2017-01-18 08:10:21+00",1.8,1.8,,43.5,-61,32,5,1010.72,42.9,0
"2017-01-18 08:15:21+00",2.9,2.9,,43.6,-86,77,9,1010.66,42.9,0
"2017-01-18 08:20:21+00",4.3,5.3,,43.6,-121,138,15,1010.93,42.8,0
"2017-01-18 08:25:21+00",7.1,7.1,,43.2,-219,214,24,1011.02,42.2,0
"2017-01-18 08:30:21+00",7.1,7.1,,42.5,-224,215,25,1011,41.9,0
"2017-01-18 08:35:21+00",6.5,7.5,,42.4,-209,198,16,1010.89,41.7,0
"2017-01-18 08:40:21+00",6.6,6.6,,43.4,-177,225,15,1010.8,41.9,0
"2017-01-18 08:45:21+00",4.7,4.7,,43.7,-127,146,13,1010.58,42.1,0
"2017-01-18 08:50:21+00",6.4,7.4,,43.9,-233,155,19,1010.74,42.3,0
"2017-01-18 08:55:21+00",6.2,6.2,,43.8,-217,158,18,1010.69,42.5,0
"2017-01-18 09:00:21+00",5.2,5.2,,43.8,-201,106,11,1010.57,42.7,0
"2017-01-18 09:05:21+00",6.2,6.2,,43.7,-199,175,17,1010.62,42.8,0
"2017-01-18 09:10:21+00",6.2,6.2,,43.7,-218,150,17,1010.77,42.8,0
"2017-01-18 09:15:21+00",5.1,6.1,,44.1,-93,190,10,1010.59,42.9,0
"2017-01-18 09:20:21+00",8.5,9.5,,43.9,-206,303,21,1010.83,42.9,0
"2017-01-18 09:25:21+00",5.8,6.8,,43.9,-166,183,16,1010.87,43.1,0
"2017-01-18 09:30:21+00",6.4,7.4,,43.8,-125,241,18,1011,43.2,0
"2017-01-18 09:35:21+00",5.8,6.8,,43.8,-79,233,13,1010.92,43.2,0
"2017-01-18 09:40:21+00",8.2,9.2,,44,-21,349,11,1010.78,43.3,0
"2017-01-18 09:45:21+00",3.6,5.6,,44.3,79,110,1,1010.57,43.7,0
"2017-01-18 09:50:21+00",0.6,0.6,,44.2,14,14,3,1010.86,43.8,0
"2017-01-18 09:55:21+00",3.1,4.1,,44.3,-5,122,4,1010.71,43.8,0
"2017-01-18 10:00:21+00",4.3,4.3,,44.3,-75,162,13,1010.92,43.8,0
"2017-01-18 10:05:21+00",3.2,4.2,,44.2,-111,74,15,1010.86,43.7,0
"2017-01-18 10:10:21+00",3.3,4.3,,44.1,-134,21,10,1010.79,43.4,0
"2017-01-18 10:15:21+00",4.7,4.7,,44,-26,189,11,1010.58,43.2,0
"2017-01-18 10:20:21+00",4.0,4.0,,43.8,-81,145,15,1010.75,43.1,0
"2017-01-18 10:25:21+00",1.8,1.8,,43.4,-41,48,2,1010.69,43,0
"2017-01-18 10:30:21+00",4.2,5.2,,43.6,-58,160,10,1010.74,42.8,0
"2017-01-18 10:35:21+00",2.8,2.8,,43.5,-42,102,8,1010.71,42.7,0
"2017-01-18 10:40:21+00",4.0,4.0,,43.7,-69,142,8,1010.63,42.5,0
"2017-01-18 10:45:21+00",4.8,4.8,,43.9,-109,169,15,1010.85,42.3,0
"2017-01-18 10:50:21+00",4.8,4.8,,44,-100,172,10,1010.91,42.2,0
"2017-01-18 10:55:21+00",4.4,4.4,,44,-79,162,11,1010.87,42.2,0
"2017-01-18 11:00:21+00",5.3,5.3,,43.9,-109,191,18,1010.92,42.3,0
"2017-01-18 11:05:21+00",6.1,6.1,,43.9,-125,225,21,1010.96,42.4,0
"2017-01-18 11:10:21+00",5.8,6.8,,43.8,-96,220,15,1010.95,42.4,0
"2017-01-18 11:15:21+00",5.0,6.0,,43.6,-90,190,12,1010.97,42.5,0
"2017-01-18 11:20:21+00",5.1,6.1,,43.5,-56,202,11,1010.98,42.7,0
"2017-01-18 11:25:21+00",4.9,5.9,,43.5,-28,196,8,1010.96,42.8,0
"2017-01-18 11:30:21+00",4.4,5.4,,43.6,-51,173,10,1011.02,42.9,0
"2017-01-18 11:35:21+00",4.5,5.5,,43.6,-20,186,11,1010.87,43,0
"2017-01-18 11:40:21+00",4.6,5.6,,43.6,-31,187,10,1010.85,43.1,0
"2017-01-18 11:45:21+00",4.8,4.8,,43.5,-41,197,10,1010.83,43.1,0
"2017-01-18 11:50:21+00",4.6,5.6,,43.4,-38,191,9,1010.93,43,0
"2017-01-18 11:55:21+00",4.5,5.5,,43.3,-63,177,6,1010.87,43,0
"2017-01-18 12:00:21+00",6.0,7.0,,43.3,-90,241,20,1010.78,43,0
"2017-01-18 12:05:21+00",6.4,7.4,,43.3,-91,252,9,1010.86,43,0
"2017-01-18 12:10:21+00",5.8,6.8,,43.2,-155,188,26,1010.92,42.9,0
"2017-01-18 12:15:21+00",6.3,7.3,,43,-177,210,22,1010.91,42.8,0
"2017-01-18 12:20:21+00",6.1,7.1,,42.9,-154,212,16,1011.23,42.7,0
"2017-01-18 12:25:21+00",8.0,9.0,,42.7,-116,326,14,1011.38,42.6,0
"2017-01-18 12:30:21+00",6.9,7.9,,42.6,-78,283,12,1011.4,42.5,0
"2017-01-18 12:35:21+00",8.8,9.8,,42.6,-88,368,11,1011.47,42.5,0
"2017-01-18 12:40:21+00",8.2,10.2,,42.6,-102,336,18,1011.62,42.4,0
"2017-01-18 12:45:21+00",7.0,8.0,,42.6,-143,262,26,1011.85,42.4,0
"2017-01-18 12:50:21+00",9.4,10.4,,42.4,-145,376,23,1011.86,42.3,0
"2017-01-18 12:55:21+00",11.5,13.5,,42.3,-32,491,13,1011.75,42.2,0
"2017-01-18 13:00:21+00",10.6,12.6,,42.1,-49,460,20,1011.7,42.1,0
"2017-01-18 13:05:21+00",9.1,11.1,,41.9,-79,376,23,1011.82,42,0
"2017-01-18 13:10:21+00",9.5,10.5,,41.9,-103,393,20,1011.93,41.9,0
"2017-01-18 13:15:21+00",9.4,11.4,,41.9,-98,383,14,1011.95,41.9,0
"2017-01-18 13:20:21+00",9.5,11.5,,41.8,-14,407,9,1011.91,41.8,0
"2017-01-18 13:25:21+00",10.2,11.2,,41.6,1,435,9,1011.78,41.7,0
"2017-01-18 13:30:21+00",9.7,10.7,,41.6,-59,417,24,1011.95,41.7,0
"2017-01-18 13:35:21+00",9.1,10.1,,41.6,-77,382,13,1011.98,41.6,0
"2017-01-18 13:40:21+00",10.2,11.2,,41.6,-63,436,12,1011.98,41.7,8.4
"2017-01-18 13:45:21+00",10.9,11.9,,41.6,-140,445,11,1012.19,41.8,0.5
"2017-01-18 13:50:21+00",9.5,11.5,,41.6,-118,384,14,1012.03,41.7,0
"2017-01-18 13:55:21+00",8.1,9.1,,41.6,-193,289,30,1012.23,41.6,0
"2017-01-18 14:00:21+00",8.6,10.6,,41.4,-233,290,32,1012.34,41.4,0
"2017-01-18 14:05:21+00",7.9,8.9,,41.4,-131,309,26,1012.3,41.4,0
"2017-01-18 14:10:21+00",8.8,9.8,,41.4,-93,372,13,1012.18,41.5,0.7
"2017-01-18 14:15:21+00",9.4,10.4,,41.4,-56,399,9,1012.19,41.6,3.8
"2017-01-18 14:20:21+00",10.7,11.7,,41.5,-102,456,20,1012.1,41.7,5.4
"2017-01-18 14:25:21+00",9.8,10.8,,41.5,-54,418,26,1012.11,41.7,14.9
"2017-01-18 14:30:21+00",9.6,10.6,,41.5,5,408,7,1012,41.8,26.7
"2017-01-18 14:35:21+00",9.7,11.7,,41.5,-38,419,37,1011.95,41.8,24.1
"2017-01-18 14:40:21+00",12.6,13.6,,41.4,5,545,20,1011.91,41.8,34.8
"2017-01-18 14:45:21+00",11.7,13.7,,41.5,53,497,22,1011.8,41.8,39.1
"2017-01-18 14:50:21+00",12.0,13.0,,41.4,-18,521,13,1012.04,41.9,38.1
"2017-01-18 14:55:21+00",9.2,11.2,,41.7,-44,392,45,1012.1,42.1,75.1
"2017-01-18 15:00:21+00",10.9,13.9,,41.8,-64,465,27,1012.16,42.4,63.3
"2017-01-18 15:05:21+00",10.9,12.9,,41.8,-110,459,9,1012.31,42.3,20.3
"2017-01-18 15:10:21+00",10.8,12.8,,41.9,-110,451,18,1012.44,42.3,48.6
"2017-01-18 15:15:21+00",13.7,15.7,,41.9,-137,576,26,1012.28,42.4,90.2
"2017-01-18 15:20:21+00",14.9,15.9,,42,-143,629,10,1012.34,42.7,83.5
"2017-01-18 15:25:21+00",11.5,13.5,,42.3,-108,486,40,1012.2,42.8,73.6
"2017-01-18 15:30:21+00",13.6,14.6,,42.3,-31,584,1,1012.09,42.8,80.3
"2017-01-18 15:35:21+00",12.0,14.0,,42.5,-28,523,21,1011.96,43.1,99.5
"2017-01-18 15:40:21+00",11.0,13.0,,42.7,50,467,19,1012.02,43.2,46.5
"2017-01-18 15:45:21+00",8.3,10.3,,42.4,-76,339,22,1012.16,42.9,23.1
"2017-01-18 15:50:21+00",9.5,11.5,,42.1,-75,408,7,1012.16,42.7,31.7
"2017-01-18 15:55:21+00",10.4,11.4,,42.2,-74,446,20,1012.03,42.7,35
"2017-01-18 16:00:21+00",10.6,11.6,,42.2,19,451,6,1011.89,42.8,44.7
"2017-01-18 16:05:21+00",13.3,15.3,,42.1,47,563,-2,1011.82,42.7,52.9
"2017-01-18 16:10:21+00",10.8,12.8,,42.3,-61,470,26,1011.72,42.9,40
"2017-01-18 16:15:21+00",10.6,12.6,,42.3,-72,453,14,1011.65,42.9,57.5
"2017-01-18 16:20:21+00",8.5,9.5,,42.5,-3,366,21,1011.68,43,51.8
"2017-01-18 16:25:21+00",8.7,10.7,,42.5,-125,359,44,1011.7,43,33.8
"2017-01-18 16:30:21+00",10.1,11.1,,42.7,-220,380,16,1011.73,43.2,37.5
"2017-01-18 16:35:21+00",8.5,9.5,,42.8,-215,314,35,1011.74,43.2,14.1
"2017-01-18 16:40:21+00",10.2,11.2,,42.8,-227,381,26,1011.76,43.1,12
"2017-01-18 16:45:21+00",9.3,11.3,,43,-272,309,36,1011.59,43.2,35.4
"2017-01-18 16:50:21+00",10.7,11.7,,43.2,-285,369,28,1011.59,43.2,17.3
"2017-01-18 16:55:21+00",9.6,10.6,,42.9,-278,314,25,1011.59,43,5.5
"2017-01-18 17:00:21+00",11.3,13.3,,43.1,-270,414,45,1011.65,43,8.9
"2017-01-18 17:05:21+00",9.1,11.1,,43.1,-243,312,31,1011.57,43.1,1.4
"2017-01-18 17:10:21+00",10.6,12.6,,43,-295,368,36,1011.61,43,0.4
"2017-01-18 17:15:21+00",11.1,12.1,,42.7,-336,373,27,1011.63,42.7,0.5
"2017-01-18 17:20:21+00",11.9,12.9,,42.8,-300,419,20,1011.58,42.7,2.8
"2017-01-18 17:25:21+00",9.4,11.4,,43,-221,348,40,1011.62,42.8,0.9
"2017-01-18 17:30:21+00",10.6,11.6,,43,-244,399,24,1011.64,42.9,0.7
"2017-01-18 17:35:21+00",9.9,10.9,,43,-164,393,21,1011.61,43,0.8
"2017-01-18 17:40:21+00",9.8,11.8,,43,-225,368,34,1011.54,43.1,5.5
"2017-01-18 17:45:21+00",8.4,9.4,,43.2,-105,340,32,1011.6,43.3,47.5
"2017-01-18 17:50:21+00",10.1,12.1,,43.5,-48,436,43,1011.65,43.7,59.3
"2017-01-18 17:55:21+00",12.6,13.6,,43.2,5,547,5,1011.56,43.9,34.3
"2017-01-18 18:00:21+00",11.4,14.4,,43,-61,503,27,1011.51,43.8,25.9
"2017-01-18 18:05:21+00",11.5,13.5,,43,-33,509,15,1011.55,43.6,28.4
"2017-01-18 18:10:21+00",11.1,12.1,,42.8,-77,483,22,1011.59,43.5,14.5
"2017-01-18 18:15:21+00",11.9,12.9,,42.8,-39,515,10,1011.64,43.4,23.1
"2017-01-18 18:20:21+00",11.3,13.3,,42.8,-38,488,22,1011.74,43.4,22.8
"2017-01-18 18:25:21+00",12.7,14.7,,42.8,-60,553,18,1011.8,43.4,22.3
"2017-01-18 18:30:21+00",11.6,13.6,,42.8,-50,508,13,1011.89,43.3,1.5
"2017-01-18 18:35:21+00",12.2,13.2,,42.8,-86,535,19,1011.92,43.3,6.5
"2017-01-18 18:40:21+00",13.2,15.2,,42.8,-13,571,14,1011.97,43.3,6.2
"2017-01-18 18:45:21+00",11.1,14.1,,42.8,43,482,18,1012.04,43.2,0.8
"2017-01-18 18:50:21+00",10.7,12.7,,42.7,28,456,11,1011.97,43.1,0.5
"2017-01-18 18:55:21+00",11.2,12.2,,42.5,16,492,15,1011.98,43,3.2
"2017-01-18 19:00:21+00",10.2,12.2,,42.5,21,444,17,1012.07,42.9,0.4
"2017-01-18 19:05:21+00",13.3,15.3,,42.4,-26,578,12,1012.16,42.8,0.6
"2017-01-18 19:10:21+00",12.9,14.9,,42.4,-78,556,17,1012.18,42.8,0.1
"2017-01-18 19:15:21+00",13.4,14.4,,42.5,-125,574,12,1012.34,42.7,4.9
"2017-01-18 19:20:21+00",9.9,10.9,,42.5,-26,425,25,1012.37,42.8,0.2
"2017-01-18 19:25:21+00",13.6,15.6,,42.4,-68,595,26,1012.35,42.8,0.3
"2017-01-18 19:30:21+00",11.0,14.0,,42.5,-80,486,27,1012.52,42.7,0.5
"2017-01-18 19:35:21+00",14.0,16.0,,42.5,-50,599,12,1012.53,42.8,6.1
"2017-01-18 19:40:21+00",12.7,15.7,,42.6,-34,547,20,1012.5,42.9,3.5
"2017-01-18 19:45:21+00",10.2,12.2,,42.8,-17,452,27,1012.55,42.9,0
"2017-01-18 19:50:21+00",13.4,15.4,,42.8,-30,589,8,1012.62,42.9,0
"2017-01-18 19:55:21+00",12.9,13.9,,42.7,25,560,2,1012.76,42.9,0.2
"2017-01-18 20:00:21+00",12.1,14.1,,42.6,-8,541,19,1012.85,42.8,0
"2017-01-18 20:05:21+00",11.7,14.7,,42.5,23,510,24,1012.85,42.7,0
"2017-01-18 20:10:21+00",13.2,15.2,,42.5,-59,574,14,1012.99,42.7,0
"2017-01-18 20:15:21+00",11.5,13.5,,42.5,-21,501,25,1013.13,42.7,0
"2017-01-18 20:20:21+00",12.2,13.2,,42.6,-38,534,15,1013.11,42.7,0
"2017-01-18 20:25:21+00",11.3,14.3,,42.7,43,479,20,1013.03,42.8,1.4
"2017-01-18 20:30:21+00",11.7,14.7,,42.8,-21,515,16,1013.15,42.8,0
"2017-01-18 20:35:21+00",8.1,11.1,,42.8,78,328,16,1013.14,42.9,0.2
"2017-01-18 20:40:21+00",9.4,10.4,,42.7,25,404,2,1013.17,42.8,0.2
"2017-01-18 20:45:21+00",11.9,14.9,,42.7,-92,513,22,1013.35,42.8,0
"2017-01-18 20:50:21+00",11.8,13.8,,42.8,-67,507,14,1013.45,42.8,0
"2017-01-18 20:55:21+00",9.5,11.5,,42.8,10,410,11,1013.29,42.8,0
"2017-01-18 21:00:21+00",8.7,10.7,,42.7,37,369,9,1013.25,42.8,0
"2017-01-18 21:05:21+00",10.7,11.7,,42.8,-12,464,13,1013.42,42.7,0
"2017-01-18 21:10:21+00",9.7,10.7,,42.8,-6,428,16,1013.6,42.8,0
"2017-01-18 21:15:21+00",9.7,10.7,,42.8,26,418,11,1013.49,42.7,0
"2017-01-18 21:20:21+00",10.1,11.1,,42.8,50,432,9,1013.69,42.8,0
"2017-01-18 21:25:21+00",8.8,10.8,,42.8,66,369,7,1013.75,42.8,0
"2017-01-18 21:30:21+00",10.7,12.7,,42.8,97,447,0,1013.76,42.7,0
"2017-01-18 21:35:21+00",8.5,9.5,,42.7,76,356,-4,1013.82,42.6,0
"2017-01-18 21:40:21+00",10.2,11.2,,42.6,44,433,-2,1014.12,42.5,0
"2017-01-18 21:45:21+00",11.3,13.3,,42.6,-48,494,20,1014.13,42.5,0
"2017-01-18 21:50:21+00",11.0,12.0,,42.7,-5,479,15,1014.26,42.4,0
"2017-01-18 21:55:21+00",12.3,15.3,,42.6,-51,538,17,1014.37,42.4,0
"2017-01-18 22:00:21+00",10.3,11.3,,42.5,-58,441,15,1014.49,42.3,0
"2017-01-18 22:05:21+00",9.8,10.8,,42.6,-44,430,22,1014.62,42.3,0
"2017-01-18 22:10:21+00",9.6,12.6,,42.5,-22,419,16,1014.73,42.3,0
"2017-01-18 22:15:21+00",12.0,14.0,,42.5,-60,518,18,1014.78,42.2,0
"2017-01-18 22:20:21+00",13.3,14.3,,42.5,-18,582,7,1014.88,42.2,0
"2017-01-18 22:25:21+00",10.3,12.3,,42.5,17,446,6,1014.93,42.2,0
"2017-01-18 22:30:21+00",10.1,12.1,,42.4,19,436,6,1015.09,42.1,0
"2017-01-18 22:35:21+00",8.8,9.8,,42.4,31,372,14,1015.17,42.1,0
"2017-01-18 22:40:21+00",8.7,10.7,,42.3,45,359,16,1015.14,42,0
"2017-01-18 22:45:21+00",8.7,10.7,,42.2,31,379,9,1015.25,41.9,0
"2017-01-18 22:50:21+00",9.8,11.8,,42.2,13,424,8,1015.36,41.8,0
"2017-01-18 22:55:21+00",9.8,10.8,,42.1,6,414,20,1015.41,41.7,0
"2017-01-18 23:00:21+00",9.1,10.1,,42.1,24,392,11,1015.47,41.6,0
"2017-01-18 23:05:21+00",9.6,10.6,,41.9,39,409,5,1015.47,41.5,0
"2017-01-18 23:10:21+00",11.3,13.3,,41.9,86,478,1,1015.57,41.3,0
"2017-01-18 23:15:21+00",10.3,12.3,,41.9,50,442,5,1015.74,41.1,0
"2017-01-18 23:20:21+00",10.0,11.0,,41.7,33,434,12,1015.93,41,0
"2017-01-18 23:25:21+00",9.3,11.3,,41.7,34,400,9,1015.93,40.9,0
"2017-01-18 23:30:21+00",8.4,9.4,,41.5,41,359,9,1016.05,40.7,0
"2017-01-18 23:35:21+00",8.6,10.6,,41.3,23,371,10,1016.09,40.5,0
"2017-01-18 23:40:21+00",9.2,10.2,,41.2,17,389,7,1016.22,40.2,0
"2017-01-18 23:45:21+00",8.8,9.8,,41.1,27,376,8,1016.39,40.1,0
"2017-01-18 23:50:21+00",7.9,8.9,,41,38,337,9,1016.4,39.9,0
"2017-01-18 23:55:21+00",8.0,9.0,,40.9,60,336,7,1016.42,39.8,0
